CW3081 Weather Reports


time (UTC)temp
F
wind
direction
speed
knots
gust
knots
rain 1hr
in
rain 24hr
in
rain mn
in
humidity
%
barometer
mb
20260505034548 67 0 0.0 0.9 0.00 0.00 0.00 58 1010.7
20260505033043 67 0 0.0 0.9 0.00 0.00 0.00 56 1010.6
20260505031548 67 219 0.0 0.9 0.00 0.00 0.00 55 1010.5
20260505030043 68 219 0.0 0.9 0.00 0.00 0.00 55 1010.4
20260505024551 68 0 0.0 0.9 0.00 0.00 0.00 55 1010.5
20260505023051 68 205 0.0 0.9 0.00 0.00 0.00 55 1010.3
20260505021545 69 167 0.0 0.9 0.00 0.00 0.00 54 1010.3
20260505020046 69 232 0.0 0.9 0.00 0.00 0.00 54 1010.2
20260505014550 69 238 0.0 0.9 0.00 0.00 0.00 55 1010.0
20260505013047 69 238 0.0 0.9 0.00 0.00 0.00 54 1010.2
20260505011548 70 238 0.0 0.9 0.00 0.00 0.00 54 1010.1
20260505010105 71 0 0.0 0.0 0.00 0.00 0.00 52 1010.2
20260505004546 72 0 0.0 0.9 0.00 0.00 0.00 49 1010.0
20260505003045 73 238 0.0 0.9 0.00 0.00 0.00 47 1010.1
20260505001539 74 241 0.0 0.9 0.00 0.00 0.00 46 1010.1
20260505000049 74 238 0.9 1.7 0.00 0.00 0.00 45 1010.0
20260504234545 75 231 0.9 1.7 0.00 0.00 0.00 44 1010.2
20260504233043 75 233 0.9 2.6 0.00 0.00 0.00 42 1010.3
20260504231551 76 227 1.7 3.5 0.00 0.00 0.00 42 1010.3
20260504230046 76 255 1.7 3.5 0.00 0.00 0.00 43 1010.2
20260504224546 76 211 1.7 5.2 0.00 0.00 0.00 43 1010.2
20260504223059 77 240 0.0 3.5 0.00 0.00 0.00 44 1010.1
20260504221556 77 205 1.7 5.2 0.00 0.00 0.00 41 1010.2
20260504220051 77 263 1.7 5.2 0.00 0.00 0.00 42 1010.0
20260504214558 78 236 0.9 4.3 0.00 0.00 0.00 43 1009.9
20260504213059 78 239 1.7 5.2 0.00 0.00 0.00 42 1010.1
20260504211549 78 277 1.7 4.3 0.00 0.00 0.00 41 1010.0
20260504210045 77 143 0.9 3.5 0.00 0.00 0.00 46 1010.2
20260504204553 78 236 0.9 2.6 0.00 0.00 0.00 45 1010.2
20260504203049 78 248 0.9 3.5 0.00 0.00 0.00 47 1010.4
20260504201552 78 253 1.7 4.3 0.00 0.00 0.00 46 1010.6
20260504200047 79 271 1.7 4.3 0.00 0.00 0.00 43 1010.8
20260504194549 79 264 0.9 4.3 0.00 0.00 0.00 44 1010.9
20260504193041 78 261 1.7 4.3 0.00 0.00 0.00 45 1011.2
20260504191548 79 182 0.9 3.5 0.00 0.00 0.00 46 1011.3
20260504190048 78 274 2.6 4.3 0.00 0.00 0.00 46 1011.5
20260504184542 78 226 1.7 3.5 0.00 0.00 0.00 48 1011.7
20260504183046 78 226 1.7 5.2 0.00 0.00 0.00 49 1011.7
20260504181550 78 214 1.7 3.5 0.00 0.00 0.00 49 1012.0
20260504180049 77 276 1.7 3.5 0.00 0.00 0.00 51 1012.1
20260504174550 77 180 0.0 3.5 0.00 0.00 0.00 53 1012.1
20260504173049 76 272 1.7 3.5 0.00 0.00 0.00 52 1012.5
20260504171549 76 261 1.7 2.6 0.00 0.00 0.00 54 1012.5
20260504081551 54 0 0.0 0.9 0.00 0.00 0.00 68 1013.7
20260504044542 55 217 0.0 0.9 0.00 0.00 0.00 65 1014.8
20260504043042 55 215 0.0 0.9 0.00 0.00 0.00 64 1015.0
20260504041546 54 215 0.0 0.9 0.00 0.00 0.00 65 1015.1
20260504040107 53 208 0.0 0.9 0.00 0.00 0.00 67 1015.3